Retour au catalogue

DELTA 1 DEB

ActifSSO
NORAD 10717·DEBRIS·🇺🇸 United States

Lancé Jul 29, 1976 depuis Vandenberg Space Force Base

Loading…

Prochains Passages (prochaines 24 heures)

TLE

FraisSource: Space-Track

Époque: Sep 14, 2026, 09:57 UTC

1 10717U 76077AN  26257.41517444 -.00000034  00000-0  10640-3 0  9997
2 10717 102.6593 243.3776 0099800 144.8373  11.3074 12.23336667238640

Suivez DELTA 1 DEB en temps réel avec AllMySat

Download on the App Store